Weather Roundup
Issued by NWS Chicago, IL

Home | Current Version | Previous Version | Text Only | Print | Product List | Glossary On
Versions: 1 2 3 4 5 6 7 8 9 10 11 12 13 14 15 16 17 18 19 20 21 22 23 24 25 26 27 28 29 30 31 32 33 34 35 36 37 38 39 40 41 42 43 44 45 46 47 48 49 50
000
NZUS59 KLOT 271209
HRRLOT

CHICAGO AREA WEATHER ROUNDUP
NATIONAL WEATHER SERVICE CHICAGO/ROMEOVILLE IL
700 AM CDT SUN MAY 27 2018

NOTE: "FAIR" INDICATES FEW OR NO CLOUDS BELOW 12,000 FEET WITH NO
SIGNIFICANT WEATHER AND/OR OBSTRUCTIONS TO VISIBILITY.

* THESE STATIONS ARE NOT UNDER NWS QUALITY CONTROL. THEY ALSO MAY NOT
  REPORT WEATHER SUCH AS PRECIPITATION OR FOG.

ILZ005-006-012>014-019>023-271300-
NORTHEAST ILLINOIS

CITY           SKY/WX    TMP DP  RH WIND       PRES   REMARKS
OHARE            N/A     75  67  76 SW3       29.85R
6HR MIN TEMP:  70; 6HR MAX TEMP:  75;

MIDWAY           N/A     75  67  76 SW3       29.85R
6HR MIN TEMP:  72; 6HR MAX TEMP:  77;

AURORA           N/A     71  67  87 CALM      29.86R FOG
6HR MIN TEMP:  64; 6HR MAX TEMP:  71;

LANSING*         N/A     71  67  87 CALM      29.87R
JOLIET*          N/A     73  71  93 CALM      29.86S
WAUKEGAN         N/A     73  64  73 VRB3      29.84R
6HR MIN TEMP:  62; 6HR MAX TEMP:  73;

DUPAGE AIRPORT   N/A     71  69  93 CALM      29.86R
6HR MIN TEMP:  64; 6HR MAX TEMP:  71;

WHEELING         N/A     71  65  81 CALM      29.87R
6HR MIN TEMP:  65; 6HR MAX TEMP:  72;

KANKAKEE*        N/A     71  65  81 CALM      29.87S
MORRIS*          N/A     73  67  83 CALM      29.85R
LEWIS AIRPORT*   N/A     73  67  82 CALM      29.87R
NORTHERLY ISL    N/A    -27 -64  12 W8          N/A  WCI -47
$$

WIZ051-052-058>065-066-070>072-271300-
SOUTHEAST WISCONSIN

CITY           SKY/WX    TMP DP  RH WIND       PRES   REMARKS
MILWAUKEE        N/A     77  64  64 W3        29.84R
6HR MIN TEMP:  68; 6HR MAX TEMP:  77;

KENOSHA*         N/A     73  65  75 CALM      29.85R
RACINE*          N/A     75  63  66 W7        29.86R
BURLINGTON       N/A     68  65  89 CALM      29.85S
WAUKESHA       SUNNY     68  63  83 CALM      29.86R
WEST BEND        N/A     68  66  94 CALM      29.84R
$$

INZ001>003-010>013-019-020-271300-
NORTHWEST INDIANA

CITY           SKY/WX    TMP DP  RH WIND       PRES   REMARKS
GARY*          SUNNY     75  64  69 SW6       29.87R
MICHIGAN CITY* NOT AVBL
RENSSELAER*    NOT AVBL
$$

LMZ740>746-271300-
SOUTHERN LAKE MICHIGAN

STATION/POSITION TIME  SKY/WX   TEMP WIND        PRES    VSBY
                                AIR  DIR/SP/G
                 (UTC)          (F)  (DEG/KT/KT) (MB)    (MI)
HARRISON CRIB    1140            76  240/  5/  6   N/A
BURNHAM HARBOR   1200                270/  3/  8   N/A
CALUMET HARBOR   1148            74  220/  4/  5 1010.4R
BURNS HARBOR     1140            75   CALM  /  1 1011.5R
MICHIGAN CITY    1140            75  180/  7/  8   N/A
$$

ABBREVIATIONS USED IN REMARKS
   TC - TEMPERATURE IN CELSIUS
  WCI - WIND CHILL INDEX
   HX - HEAT INDEX
  VSB - VISIBILITY
$$



USA.gov is the U.S. government's official web portal to all federal, state and local government web resources and services.